Location: Monroe
(41.9160°N, 83.3980°W)
Time: 12:48:13
(UTC-05:00)

Amateur Radio Satellites - All Passes

Search period start: 10 February 2016 12:18
Search period end: 11 February 2016 12:18
Location: Monroe, 41.9160°N, 83.3980°W

Satellite Date Start Highest point End Downlink Frequencies (MHz)
Time Altitude Azimuth
Gurwin Techsat 1B 10 Feb 12:20:10 12:22:27 13° 58° (ENE) 12:24:45 435.225
TISAT 1 10 Feb 12:21:01 12:22:30 12° 90° (E) 12:23:59 437.305
AO-85 10 Feb 12:24:11 12:28:31 24° 319° (NW) 12:32:54 145.980
CUSAT 1 10 Feb 12:24:28 12:29:45 32° 67° (ENE) 12:33:53 437.405
BUGSAT 1 10 Feb 12:32:41 12:35:56 21° 266° (W) 12:39:10 437.445
SO-50 10 Feb 12:33:46 12:37:03 18° 38° (NE) 12:40:17 436.795
POLYITAN 1 10 Feb 12:35:39 12:36:28 10° 270° (W) 12:37:18 437.675
PCSat 10 Feb 12:43:59 12:48:21 24° 314° (NW) 12:52:46 145.827
YUBILEINY 10 Feb 12:45:48 12:50:28 15° 57° (ENE) 12:55:05 435.215
ITAMSAT 1 10 Feb 12:54:46 12:57:24 14° 59° (ENE) 13:00:02 435.822/435.867
Cosmos 2499 10 Feb 12:56:44 13:01:03 14° 304° (WNW) 13:05:23 435.465 / 435.565
DANDE 10 Feb 13:01:15 13:08:00 43° 70° (ENE) 13:13:12 436.750
VELOX 1 10 Feb 13:13:22 13:16:44 22° 294° (WNW) 13:20:05 145.980
Oscar 19 10 Feb 13:20:57 13:26:07 73° 256° (WSW) 13:31:19 437.125/150
BEESAT 10 Feb 13:21:28 13:21:50 10° 88° (E) 13:22:12 436.000
JAS-2 10 Feb 13:23:59 13:31:41 85° 74° (ENE) 13:38:43 435.910
AO-7 10 Feb 13:24:15 13:29:41 19° 49° (NE) 13:35:06 29.400- 29.500
RS-15 10 Feb 13:27:29 13:38:25 55° 314° (NW) 13:50:01 29.354- 29.394
AISAT 10 Feb 13:30:58 13:33:20 14° 298° (WNW) 13:35:42 437.250
UKube-1 10 Feb 13:41:09 13:43:03 13° 298° (WNW) 13:44:55 .
SPROUT 10 Feb 13:48:04 13:51:39 26° 292° (WNW) 13:55:12 437.525
CUBEBUG 1 10 Feb 13:50:01 13:51:20 11° 299° (WNW) 13:52:38 437.445
TISAT 1 10 Feb 13:54:26 13:58:33 58° 286° (WNW) 14:02:39 437.305
Gurwin Techsat 1B 10 Feb 13:56:17 14:01:37 89° 77° (ENE) 14:06:57 435.225
CUSAT 1 10 Feb 14:07:04 14:11:51 28° 275° (W) 14:15:40 437.405
SWISSCUBE 10 Feb 14:10:24 14:14:53 38° 98° (E) 14:19:19 437.505
SO-50 10 Feb 14:13:21 14:18:11 80° 240° (WSW) 14:22:50 436.795
ITAMSAT 1 10 Feb 14:30:59 14:36:11 81° 259° (WSW) 14:41:24 435.822/435.867
YUBILEINY 10 Feb 14:40:12 14:49:05 72° 80° (E) 14:57:51 435.215
DANDE 10 Feb 14:44:48 14:50:34 29° 276° (W) 14:55:13 436.750
Cosmos 2491 10 Feb 14:46:34 14:54:26 40° 86° (E) 15:02:19 435.465 / 435.565
ITUPSAT 1 10 Feb 14:47:19 14:52:10 80° 104° (ESE) 14:56:59 437.325
KKS-1 10 Feb 14:50:39 14:52:05 11° 90° (E) 14:53:32 437.445
BEESAT 10 Feb 14:55:24 15:00:14 84° 287° (WNW) 15:05:01 436.000
JAS-2 10 Feb 15:12:14 15:17:15 19° 270° (W) 15:22:03 435.910
AO-7 10 Feb 15:12:49 15:21:10 79° 69° (ENE) 15:29:34 29.400- 29.500
HORYU 2 10 Feb 15:14:48 15:18:15 23° 66° (ENE) 15:21:43 437.375
M-CUBED/EXP-1 PRIME 10 Feb 15:17:32 15:21:01 45° 68° (ENE) 15:24:18 437.505
ISS 10 Feb 15:26:14 15:29:00 26° 136° (SE) 15:31:46 145.825
AUBIESAT-1 10 Feb 15:26:44 15:30:13 47° 69° (ENE) 15:33:31 437.475
Gurwin Techsat 1B 10 Feb 15:40:52 15:42:15 11° 272° (W) 15:43:39 435.225
RS-15 10 Feb 15:45:17 15:54:24 25° 345° (NNW) 16:03:53 29.354- 29.394
SWISSCUBE 10 Feb 15:48:37 15:52:28 24° 294° (WNW) 15:56:19 437.505
Cosmos 2504 10 Feb 15:50:27 15:58:41 45° 73° (ENE) 16:06:20 435.465 / 435.565
STARS 10 Feb 16:05:59 16:10:08 41° 99° (E) 16:14:14 437.465
CUTE-I 10 Feb 16:18:18 16:19:25 11° 56° (NE) 16:20:32 437.470
MOZHAYETS 4 10 Feb 16:22:58 16:27:28 47° 99° (E) 16:31:56
KKS-1 10 Feb 16:24:42 16:29:06 67° 286° (WNW) 16:33:29 437.445
ITUPSAT 1 10 Feb 16:27:15 16:29:20 13° 300° (WNW) 16:31:26 437.325
BEESAT 3 10 Feb 16:28:53 16:31:28 17° 111° (ESE) 16:34:03 437.485
Cubesat XI-IV 10 Feb 16:30:28 16:33:10 14° 58° (ENE) 16:35:52 437.490
BEESAT 10 Feb 16:36:28 16:37:13 10° 302° (WNW) 16:37:59 436.000
YUBILEINY 10 Feb 16:38:19 16:44:59 25° 280° (W) 16:51:36 435.215
Cosmos 2491 10 Feb 16:42:54 16:51:08 45° 286° (WNW) 16:59:25 435.465 / 435.565
BRITE-PL 10 Feb 16:48:12 16:49:56 11° 58° (ENE) 16:51:40 437.365/2234.400
HORYU 2 10 Feb 16:50:37 16:54:38 34° 263° (W) 16:58:40 437.375
BEESAT 2 10 Feb 16:53:56 16:56:55 20° 112° (ESE) 16:59:54 435.950
M-CUBED/EXP-1 PRIME 10 Feb 16:54:48 16:55:50 11° 262° (W) 16:56:51 437.505
O/OREOS (USA 219) 10 Feb 16:55:15 16:58:28 18° 54° (NE) 17:01:40 437.305
ISS 10 Feb 17:02:15 17:05:20 39° 333° (NNW) 17:08:25 145.825
AUBIESAT-1 10 Feb 17:04:25 17:05:00 10° 262° (W) 17:05:34 437.475
CUBESAT XI-V 10 Feb 17:07:06 17:09:38 14° 90° (E) 17:12:09 437.345
AO-7 10 Feb 17:08:31 17:14:43 23° 268° (W) 17:20:58 29.400- 29.500
AO-85 10 Feb 17:35:05 17:37:49 14° 32° (NNE) 17:40:29 145.980
STARS 10 Feb 17:43:07 17:46:12 19° 295° (WNW) 17:49:18 437.465
Cosmos 2504 10 Feb 17:44:08 17:51:53 39° 275° (W) 17:59:11 435.465 / 435.565
GOMX 1 10 Feb 17:47:55 17:51:43 20° 65° (ENE) 17:55:24 467.674
CUTE-I 10 Feb 17:53:14 17:58:31 74° 73° (ENE) 18:03:52 437.470
LilacSat-2 10 Feb 17:58:58 18:02:45 69° 76° (ENE) 18:06:33 437.200
MOZHAYETS 4 10 Feb 18:01:03 18:04:17 19° 295° (WNW) 18:07:31
RS-15 10 Feb 18:02:30 18:12:20 28° 21° (NNE) 18:22:23 29.354- 29.394
BEESAT 3 10 Feb 18:05:03 18:08:53 44° 308° (NW) 18:12:44 437.485
PCSat 10 Feb 18:06:03 18:07:20 11° 33° (NNE) 18:08:37 145.827
Cubesat XI-IV 10 Feb 18:07:11 18:12:30 84° 256° (WSW) 18:17:54 437.490
GONETS M04 10 Feb 18:12:13 18:15:04 12° 54° (NE) 18:17:56
BRITE-PL 10 Feb 18:21:50 18:27:31 74° 75° (ENE) 18:33:03 437.365/2234.400
BEESAT 2 10 Feb 18:30:48 18:34:34 38° 309° (NW) 18:38:21 435.950
O/OREOS (USA 219) 10 Feb 18:33:43 18:38:10 51° 252° (WSW) 18:42:37 437.305
HO-68 10 Feb 18:36:18 18:42:01 27° 58° (ENE) 18:47:45 435.675
ISS 10 Feb 18:40:20 18:42:26 16° 352° (N) 18:44:32 145.825
CUBESAT XI-V 10 Feb 18:42:45 18:47:24 59° 286° (WNW) 18:51:59 437.345
AIST 2 10 Feb 18:54:13 18:58:06 40° 117° (ESE) 19:02:01 435.215
DOVE 4 10 Feb 19:01:38 19:06:30 49° 73° (ENE) 19:11:10 437.250
CANX-2 10 Feb 19:02:31 19:05:39 21° 67° (ENE) 19:08:48 2200.000
AO-85 10 Feb 19:14:18 19:19:28 64° 54° (NE) 19:24:11 145.980
GOMX 1 10 Feb 19:24:05 19:29:24 57° 260° (W) 19:34:31 467.674
CUTE-I 10 Feb 19:36:26 19:39:08 14° 270° (W) 19:41:50 437.470
COMPASS 1 10 Feb 19:41:42 19:45:11 27° 69° (ENE) 19:48:41 437.405
STRAND 1 10 Feb 19:42:30 19:47:39 67° 102° (ESE) 19:52:47 437.568
PCSat 10 Feb 19:46:48 19:52:05 49° 55° (NE) 19:57:20 145.827
Oscar 11 10 Feb 19:49:39 19:51:25 12° 62° (ENE) 19:53:12 145.826/435.025
CINEMA 3 10 Feb 19:50:18 19:54:47 52° 73° (ENE) 19:59:06 145.822/145.860
CUTE 1.7 + AOD 2 10 Feb 19:51:47 19:55:56 63° 75° (ENE) 20:00:08 437.475
UWE-3 10 Feb 19:52:51 19:55:07 14° 64° (ENE) 19:57:22 435.000/436.395/437.385
CUBEBUG 2 10 Feb 19:52:58 19:56:05 20° 67° (ENE) 19:59:09 437.445
PRISM 10 Feb 19:56:05 19:59:40 27° 96° (E) 20:03:13 437.425
SEEDS 10 Feb 19:56:44 20:00:47 53° 73° (ENE) 20:04:53 437.485
BRITE-PL 10 Feb 20:03:04 20:06:25 16° 271° (W) 20:09:46 437.365/2234.400
GONETS M04 10 Feb 20:05:23 20:14:05 60° 78° (ENE) 20:22:46
AAUSAT CUBESAT 2 10 Feb 20:09:01 20:12:55 43° 72° (ENE) 20:16:53 437.432
RS-15 10 Feb 20:15:43 20:27:48 65° 51° (NE) 20:40:03 29.354- 29.394
ISS 10 Feb 20:17:31 20:19:49 18° 12° (NNE) 20:22:07 145.825
HO-68 10 Feb 20:22:04 20:29:10 65° 257° (WSW) 20:36:21 435.675
AIST 2 10 Feb 20:33:23 20:36:45 23° 314° (NW) 20:40:06 435.215
CANX-2 10 Feb 20:37:28 20:41:17 34° 263° (W) 20:45:10 2200.000
DOVE 4 10 Feb 20:40:48 20:44:24 19° 267° (W) 20:47:54 437.250
ZACube-1 10 Feb 20:43:09 20:46:56 34° 71° (ENE) 20:50:42 437.345
Cosmos 2499 10 Feb 20:49:05 20:57:14 49° 75° (ENE) 21:04:43 435.465 / 435.565
FUNcube-1 10 Feb 20:51:35 20:55:30 39° 72° (ENE) 20:59:23 145.935
HUMSAT D 10 Feb 20:55:59 20:58:07 14° 64° (ENE) 21:00:16 437.325/437.525
AO-85 10 Feb 20:56:16 20:59:20 16° 253° (WSW) 21:02:15 145.980
DELFI C3 10 Feb 21:15:49 21:19:42 54° 74° (ENE) 21:23:37 145.870
COMPASS 1 10 Feb 21:17:15 21:20:42 25° 265° (W) 21:24:11 437.405
Oscar 11 10 Feb 21:22:44 21:27:00 66° 259° (W) 21:31:19 145.826/435.025
STRAND 1 10 Feb 21:23:05 21:26:16 17° 299° (WNW) 21:29:28 437.568
UWE-3 10 Feb 21:27:02 21:31:11 52° 260° (W) 21:35:17 435.000/436.395/437.385
CUBEBUG 2 10 Feb 21:28:30 21:32:29 36° 262° (W) 21:36:25 437.445
CINEMA 3 10 Feb 21:29:31 21:32:11 15° 268° (W) 21:34:47 145.822/145.860
PCSat 10 Feb 21:30:53 21:35:09 24° 253° (WSW) 21:39:24 145.827
CUTE 1.7 + AOD 2 10 Feb 21:31:02 21:32:12 11° 271° (W) 21:33:22 437.475
PRISM 10 Feb 21:31:28 21:34:55 25° 292° (WNW) 21:38:21 437.425
SEEDS 10 Feb 21:34:56 21:36:50 13° 270° (W) 21:38:46 437.485
DX 1 10 Feb 21:39:52 21:40:26 10° 60° (ENE) 21:41:00 434.975-435.025
ESTCUBE 1 10 Feb 21:42:48 21:44:32 12° 61° (ENE) 21:46:17 437.505/2401.250
AAUSAT CUBESAT 2 10 Feb 21:46:12 21:48:40 15° 269° (W) 21:51:09 437.432
ANTELSAT 10 Feb 21:50:00 21:51:40 12° 90° (E) 21:53:20 437.575/2403.000
ISS 10 Feb 21:53:34 21:56:47 58° 32° (NNE) 21:59:59 145.825
TIGRISAT 10 Feb 21:56:08 21:58:16 13° 91° (E) 22:00:24 435.000
GONETS M04 10 Feb 22:03:02 22:10:19 30° 277° (W) 22:17:38
AIST 1 10 Feb 22:07:22 22:11:45 86° 85° (E) 22:16:03
ZACube-1 10 Feb 22:20:13 22:23:19 20° 266° (W) 22:26:24 437.345
RS-15 10 Feb 22:28:48 22:39:46 41° 253° (WSW) 22:50:49 29.354- 29.394
FUNcube-1 10 Feb 22:29:13 22:31:56 17° 267° (W) 22:34:39 145.935
HUMSAT D 10 Feb 22:29:24 22:33:22 50° 261° (W) 22:37:21 437.325/437.525
VELOX 1 10 Feb 22:33:59 22:38:01 34° 69° (ENE) 22:42:04 145.980
UNISAT 6 10 Feb 22:39:32 22:43:40 42° 99° (E) 22:47:52 437.425
Cosmos 2499 10 Feb 22:42:44 22:50:00 34° 276° (W) 22:56:47 435.465 / 435.565
POLYITAN 1 10 Feb 22:43:54 22:44:18 10° 89° (E) 22:44:43 437.675
QB50P2 10 Feb 22:43:56 22:44:56 11° 90° (E) 22:45:56 145.880/145.840
AISAT 10 Feb 22:50:28 22:54:49 54° 73° (ENE) 22:59:12 437.250
50 SAT 10 Feb 22:51:33 22:55:12 62° 75° (ENE) 22:58:53 437.505
DELFI C3 10 Feb 22:53:37 22:54:58 11° 270° (W) 22:56:18 145.870
UKube-1 10 Feb 22:57:51 23:02:07 57° 73° (ENE) 23:06:23 .
SPROUT 10 Feb 23:06:27 23:09:49 23° 67° (ENE) 23:13:10 437.525
CUBEBUG 1 10 Feb 23:07:12 23:11:35 65° 74° (ENE) 23:15:59 437.445
POPSAT HIP 1 10 Feb 23:11:29 23:14:43 21° 94° (E) 23:17:57 437.405
DX 1 10 Feb 23:11:33 23:15:56 85° 253° (WSW) 23:20:21 434.975-435.025
TISAT 1 10 Feb 23:14:32 23:15:15 10° 61° (ENE) 23:15:57 437.305
NANOSAT C BR1 10 Feb 23:15:26 23:18:48 23° 95° (E) 23:22:09 145.865
ESTCUBE 1 10 Feb 23:16:11 23:20:43 76° 258° (WSW) 23:25:17 437.505/2401.250
DUCHIFAT 1 10 Feb 23:16:26 23:19:46 22° 95° (E) 23:23:04 145.980
QB50P1 10 Feb 23:23:41 23:27:23 29° 97° (E) 23:31:03 145.935-145.965
ANTELSAT 10 Feb 23:24:28 23:28:46 62° 286° (WNW) 23:33:08 437.575/2403.000
ISS 10 Feb 23:30:47 23:32:56 16° 228° (SW) 23:35:03 145.825
TIGRISAT 10 Feb 23:31:02 23:35:17 55° 287° (WNW) 23:39:35 435.000
VELOX 1 11 Feb 00:11:02 00:14:33 23° 266° (W) 00:18:05 145.980
BUGSAT 1 11 Feb 00:13:11 00:17:07 50° 100° (E) 00:21:02 437.445
POLYITAN 1 11 Feb 00:16:23 00:20:34 67° 286° (WNW) 00:24:44 437.675
QB50P2 11 Feb 00:16:59 00:21:10 64° 285° (WNW) 00:25:20 145.880/145.840
UNISAT 6 11 Feb 00:17:05 00:20:06 19° 294° (WNW) 00:23:10 437.425
ITUPSAT 1 11 Feb 00:20:18 00:21:54 12° 59° (ENE) 00:23:31 437.325
PHONESAT 2.4 11 Feb 00:20:55 00:23:04 16° 151° (SSE) 00:25:13 2401.200-2431.200
BEESAT 11 Feb 00:27:09 00:29:33 14° 61° (ENE) 00:31:58 436.000
AISAT 11 Feb 00:29:10 00:31:38 14° 269° (W) 00:34:06 437.250
DANDE 11 Feb 00:32:31 00:33:16 10° 73° (ENE) 00:34:01 436.750
UKube-1 11 Feb 00:36:32 00:38:32 13° 269° (W) 00:40:31 .
SPROUT 11 Feb 00:41:45 00:45:37 32° 263° (W) 00:49:31 437.525
BEESAT 3 11 Feb 00:45:40 00:47:58 15° 41° (NE) 00:50:14 437.485
TISAT 1 11 Feb 00:46:04 00:50:18 78° 258° (WSW) 00:54:32 437.305
CUBEBUG 1 11 Feb 00:46:37 00:48:18 12° 270° (W) 00:49:58 437.445
POPSAT HIP 1 11 Feb 00:46:49 00:50:34 32° 290° (WNW) 00:54:18 437.405
NANOSAT C BR1 11 Feb 00:50:54 00:54:34 29° 291° (WNW) 00:58:12 145.865
DUCHIFAT 1 11 Feb 00:51:50 00:55:30 30° 291° (WNW) 00:59:09 145.980
Cosmos 2491 11 Feb 00:56:38 01:02:44 20° 62° (ENE) 01:08:48 435.465 / 435.565
QB50P1 11 Feb 00:59:41 01:03:02 24° 293° (WNW) 01:06:23 145.935-145.965
BEESAT 2 11 Feb 01:11:35 01:14:16 17° 42° (NE) 01:16:57 435.950
SWISSCUBE 11 Feb 01:17:05 01:21:37 45° 70° (ENE) 01:26:10 437.505
CUSAT 1 11 Feb 01:24:27 01:31:56 46° 91° (E) 01:39:27 437.405
Oscar 19 11 Feb 01:32:22 01:37:08 38° 98° (E) 01:41:52 437.125/150
KKS-1 11 Feb 01:49:19 01:51:12 13° 61° (ENE) 01:53:05 437.445
YUBILEINY 11 Feb 01:49:45 01:54:23 16° 75° (ENE) 01:59:00 435.215
BUGSAT 1 11 Feb 01:50:03 01:52:05 14° 297° (WNW) 01:54:08 437.445
ITUPSAT 1 11 Feb 01:54:15 01:59:01 86° 253° (WSW) 02:03:50 437.325
PHONESAT 2.4 11 Feb 01:56:43 01:59:55 49° 166° (SSE) 02:03:06 2401.200-2431.200
BEESAT 11 Feb 02:02:00 02:06:45 71° 258° (WSW) 02:11:32 436.000
DANDE 11 Feb 02:06:47 02:14:20 55° 92° (E) 02:22:33 436.750
Gurwin Techsat 1B 11 Feb 02:12:26 02:17:17 34° 97° (E) 02:22:06 435.225
JAS-2 11 Feb 02:19:21 02:25:01 70° 102° (ESE) 02:30:12 435.910
BEESAT 3 11 Feb 02:22:13 02:26:09 69° 240° (WSW) 02:30:03 437.485
ITAMSAT 1 11 Feb 02:43:43 02:48:30 35° 97° (E) 02:53:14 435.822/435.867
BEESAT 2 11 Feb 02:48:36 02:52:31 55° 241° (WSW) 02:56:23 435.950
Cosmos 2491 11 Feb 02:52:01 03:00:48 88° 264° (W) 03:09:36 435.465 / 435.565
SWISSCUBE 11 Feb 02:56:12 02:59:38 19° 267° (W) 03:03:04 437.505
STARS 11 Feb 03:02:54 03:06:59 38° 70° (ENE) 03:11:03 437.465
CUSAT 1 11 Feb 03:06:44 03:14:16 43° 288° (WNW) 03:21:45 437.405
Oscar 19 11 Feb 03:12:01 03:16:17 27° 295° (WNW) 03:20:31 437.125/150
AO-7 11 Feb 03:15:07 03:21:37 24° 93° (E) 03:28:02 29.400- 29.500
AIST 2 11 Feb 03:15:18 03:19:00 30° 49° (NE) 03:22:40 435.215
KKS-1 11 Feb 03:22:44 03:27:11 71° 257° (WSW) 03:31:40 437.445
MOZHAYETS 4 11 Feb 03:25:04 03:29:25 45° 71° (ENE) 03:33:48
PHONESAT 2.4 11 Feb 03:33:47 03:37:03 68° 184° (S) 03:40:18 2401.200-2431.200
YUBILEINY 11 Feb 03:40:53 03:49:39 81° 95° (E) 03:58:31 435.215
DANDE 11 Feb 03:50:23 03:57:37 37° 292° (WNW) 04:05:19 436.750
Gurwin Techsat 1B 11 Feb 03:52:30 03:57:08 31° 294° (WNW) 04:01:45 435.225
JAS-2 11 Feb 04:06:01 04:09:21 16° 303° (WNW) 04:12:33 435.910
CUBESAT XI-V 11 Feb 04:10:59 04:13:47 16° 63° (ENE) 04:16:35 437.345
ITAMSAT 1 11 Feb 04:23:20 04:27:51 30° 294° (WNW) 04:32:22 435.822/435.867
SO-50 11 Feb 04:27:49 04:32:08 32° 114° (ESE) 04:36:31 436.795
Cosmos 2504 11 Feb 04:28:18 04:36:00 38° 85° (E) 04:43:56 435.465 / 435.565
M-CUBED/EXP-1 PRIME 11 Feb 04:30:51 04:33:54 29° 104° (ESE) 04:37:06 437.505
AUBIESAT-1 11 Feb 04:39:28 04:42:36 31° 104° (ESE) 04:45:53 437.475
STARS 11 Feb 04:40:15 04:43:28 20° 266° (W) 04:46:42 437.465
HORYU 2 11 Feb 04:40:45 04:45:00 41° 99° (E) 04:49:12 437.375
Cosmos 2491 11 Feb 04:51:06 04:56:19 18° 283° (WNW) 05:01:33 435.465 / 435.565
AIST 2 11 Feb 04:53:55 04:57:25 27° 246° (WSW) 05:00:52 435.215
MOZHAYETS 4 11 Feb 05:03:44 05:06:49 18° 268° (W) 05:09:56
AO-7 11 Feb 05:06:46 05:15:04 73° 292° (WNW) 05:23:18 29.400- 29.500
PHONESAT 2.4 11 Feb 05:11:07 05:14:07 33° 200° (SSW) 05:17:05 2401.200-2431.200
STRAND 1 11 Feb 05:22:57 05:25:19 13° 59° (ENE) 05:27:42 437.568
YUBILEINY 11 Feb 05:40:58 05:47:31 23° 297° (WNW) 05:54:09 435.215
CUBESAT XI-V 11 Feb 05:46:02 05:50:39 59° 259° (W) 05:55:21 437.345
M-CUBED/EXP-1 PRIME 11 Feb 06:06:09 06:08:24 17° 297° (WNW) 06:10:44 437.505
SO-50 11 Feb 06:08:02 06:12:35 36° 312° (NW) 06:17:10 436.795
CUTE-I 11 Feb 06:10:21 06:15:00 29° 95° (E) 06:19:36 437.470
AUBIESAT-1 11 Feb 06:14:45 06:17:01 17° 297° (WNW) 06:19:21 437.475
HORYU 2 11 Feb 06:18:04 06:21:16 20° 295° (WNW) 06:24:27 437.375
Cosmos 2504 11 Feb 06:20:48 06:29:06 50° 285° (WNW) 06:37:44 435.465 / 435.565
Cubesat XI-IV 11 Feb 06:24:16 06:29:16 38° 98° (E) 06:34:15 437.490
BRITE-PL 11 Feb 06:28:08 06:31:37 21° 91° (E) 06:34:55 437.365/2234.400
PRISM 11 Feb 06:46:18 06:49:30 22° 66° (ENE) 06:52:44 437.425
STRAND 1 11 Feb 06:58:39 07:03:46 84° 256° (WSW) 07:08:57 437.568
AO-7 11 Feb 07:01:24 07:06:27 18° 312° (NW) 07:11:30 29.400- 29.500
LilacSat-2 11 Feb 07:06:17 07:10:06 80° 281° (WNW) 07:13:52 437.200
O/OREOS (USA 219) 11 Feb 07:08:41 07:11:34 17° 100° (E) 07:14:29 437.305
GONETS M04 11 Feb 07:17:29 07:20:02 12° 72° (ENE) 07:22:36
GOMX 1 11 Feb 07:26:20 07:30:29 39° 97° (E) 07:34:25 467.674
CUTE 1.7 + AOD 2 11 Feb 07:39:00 07:40:00 11° 89° (E) 07:41:01 437.475
CINEMA 3 11 Feb 07:47:32 07:48:04 10° 90° (E) 07:48:35 145.822/145.860
HO-68 11 Feb 07:50:09 07:55:50 25° 93° (E) 08:01:29 435.675
CUTE-I 11 Feb 07:50:09 07:55:05 38° 292° (WNW) 08:00:00 437.470
Cubesat XI-IV 11 Feb 08:04:37 08:09:11 29° 294° (WNW) 08:13:45 437.490
BRITE-PL 11 Feb 08:05:56 08:10:18 37° 290° (WNW) 08:14:22 437.365/2234.400
PRISM 11 Feb 08:20:54 08:24:39 32° 263° (W) 08:28:26 437.425
CANX-2 11 Feb 08:21:48 08:25:48 37° 97° (E) 08:29:48 2200.000
DOVE 4 11 Feb 08:38:01 08:42:13 64° 286° (WNW) 08:46:18 437.250
O/OREOS (USA 219) 11 Feb 08:46:16 08:50:34 46° 297° (WNW) 08:54:56 437.305
ANTELSAT 11 Feb 08:50:07 08:51:39 12° 62° (ENE) 08:53:10 437.575/2403.000
TIGRISAT 11 Feb 08:56:00 08:57:58 13° 63° (ENE) 08:59:55 435.000
COMPASS 1 11 Feb 08:59:00 09:03:06 47° 99° (E) 09:07:11 437.405
GOMX 1 11 Feb 09:05:14 09:08:16 18° 296° (WNW) 09:11:12 467.674
GONETS M04 11 Feb 09:06:29 09:15:03 67° 92° (E) 09:23:39
Oscar 11 11 Feb 09:10:11 09:13:34 22° 94° (E) 09:16:56 145.826/435.025
CUTE 1.7 + AOD 2 11 Feb 09:12:01 09:16:17 67° 285° (WNW) 09:20:33 437.475
SEEDS 11 Feb 09:15:44 09:20:02 81° 282° (WNW) 09:24:17 437.485
UWE-3 11 Feb 09:16:18 09:19:56 27° 96° (E) 09:23:37 435.000/436.395/437.385
CUBEBUG 2 11 Feb 09:18:27 09:22:25 40° 98° (E) 09:26:27 437.445
CINEMA 3 11 Feb 09:21:32 09:25:39 64° 285° (WNW) 09:29:47 145.822/145.860
Cosmos 2499 11 Feb 09:24:44 09:32:42 41° 86° (E) 09:40:48 435.465 / 435.565
AAUSAT CUBESAT 2 11 Feb 09:26:09 09:30:23 80° 102° (ESE) 09:34:36 437.432
AO-85 11 Feb 09:29:13 09:33:18 23° 109° (ESE) 09:37:31 145.980
HO-68 11 Feb 09:36:54 09:44:01 64° 291° (WNW) 09:51:06 435.675
UNISAT 6 11 Feb 09:38:52 09:42:50 38° 71° (ENE) 09:46:49 437.425
CANX-2 11 Feb 09:58:17 10:01:25 20° 294° (WNW) 10:04:33 2200.000
POPSAT HIP 1 11 Feb 10:04:53 10:07:46 18° 65° (ENE) 10:10:38 437.405
ZACube-1 11 Feb 10:06:33 10:10:47 71° 102° (ESE) 10:15:04 437.345
NANOSAT C BR1 11 Feb 10:08:28 10:11:28 19° 66° (ENE) 10:14:28 145.865
DUCHIFAT 1 11 Feb 10:09:15 10:12:11 19° 66° (ENE) 10:15:08 145.980
HUMSAT D 11 Feb 10:12:48 10:16:12 24° 95° (E) 10:19:36 437.325/437.525
FUNcube-1 11 Feb 10:14:49 10:19:03 84° 103° (ESE) 10:23:21 145.935
QB50P1 11 Feb 10:16:45 10:20:10 24° 68° (ENE) 10:23:34 145.935-145.965
ANTELSAT 11 Feb 10:23:32 10:27:49 68° 257° (WSW) 10:32:05 437.575/2403.000
DELFI C3 11 Feb 10:28:10 10:32:14 89° 103° (ESE) 10:36:17 145.870
PCSat 11 Feb 10:28:50 10:33:52 41° 112° (ESE) 10:38:57 145.827
TIGRISAT 11 Feb 10:29:55 10:34:11 61° 259° (W) 10:38:24 435.000
COMPASS 1 11 Feb 10:35:44 10:38:18 16° 295° (WNW) 10:40:51 437.405
AIST 1 11 Feb 10:36:43 10:40:57 49° 93° (E) 10:45:14
RS-15 11 Feb 10:40:53 10:50:32 37° 105° (ESE) 11:00:35 29.354- 29.394
Oscar 11 11 Feb 10:45:50 10:49:45 34° 290° (WNW) 10:53:41 145.826/435.025
UWE-3 11 Feb 10:52:51 10:56:20 25° 291° (WNW) 10:59:51 435.000/436.395/437.385
CUBEBUG 2 11 Feb 10:55:56 10:58:47 18° 294° (WNW) 11:01:40 437.445
CUBEBUG 1 11 Feb 10:57:55 10:59:18 11° 89° (E) 11:00:42 437.445
DX 1 11 Feb 11:00:43 11:03:22 16° 92° (E) 11:06:02 434.975-435.025
BUGSAT 1 11 Feb 11:03:07 11:06:59 37° 71° (ENE) 11:10:50 437.445
GONETS M04 11 Feb 11:05:29 11:12:34 27° 294° (WNW) 11:19:44
AO-85 11 Feb 11:08:10 11:13:27 57° 307° (NW) 11:18:54 145.980
POLYITAN 1 11 Feb 11:09:02 11:13:15 88° 249° (WSW) 11:17:31 437.675
ESTCUBE 1 11 Feb 11:09:04 11:12:37 22° 94° (E) 11:16:08 437.505/2401.250
QB50P2 11 Feb 11:09:35 11:13:49 84° 254° (WSW) 11:18:05 145.880/145.840
UNISAT 6 11 Feb 11:16:40 11:19:42 19° 267° (W) 11:22:44 437.425
Cosmos 2499 11 Feb 11:17:21 11:25:42 47° 286° (WNW) 11:34:12 435.465 / 435.565
HO-68 11 Feb 11:27:15 11:30:22 13° 311° (NW) 11:33:29 435.675
POPSAT HIP 1 11 Feb 11:39:16 11:43:15 41° 261° (W) 11:47:16 437.405
NANOSAT C BR1 11 Feb 11:43:01 11:46:57 38° 262° (W) 11:50:54 145.865
DUCHIFAT 1 11 Feb 11:43:41 11:47:38 39° 262° (W) 11:51:35 145.980
ZACube-1 11 Feb 11:45:16 11:46:32 11° 298° (WNW) 11:47:48 437.345
HUMSAT D 11 Feb 11:48:13 11:51:50 29° 290° (WNW) 11:55:28 437.325/437.525
QB50P1 11 Feb 11:52:07 11:55:49 29° 263° (W) 11:59:32 145.935-145.965
50 SAT 11 Feb 11:56:28 12:00:18 83° 103° (ESE) 12:04:06 437.505
VELOX 1 11 Feb 11:59:42 12:04:06 66° 101° (ESE) 12:08:28 145.980
CUSAT 1 11 Feb 12:03:09 12:07:47 24° 64° (ENE) 12:11:31 437.405
